Location: Ward Pound Ridge Reservation
(41.2500°N, 73.6000°W)
Time: 19:00:47
(UTC-04:00)

ISS - Pass Details

Date: 11 October 2017
Orbit: 401 x 408 km, 51.6° (Epoch: 22 October)

Event Time Altitude Azimuth Distance (km) Brightness Sun altitude
Rises 18:50:17 0° 310° (NW) 2,325 0.8 -6.6°
Reaches altitude 10° 18:52:41 10° 326° (NNW) 1,465 -0.6 -7.0°
Maximum altitude 18:55:20 22° 20° (NNE) 944 -2.2 -7.5°
Enters shadow 18:57:55 10° 73° (ENE) 1,448 -1.7 -8.0°
